{"data":{"norad_id":60346,"epoch":"2026-05-25T02:06:35.875008Z","epoch_age_seconds":60644,"freshness":"FRESH","line1":"1 60346U 24136T   26145.08791522 -.00000825  00000+0 -15730-4 0  9993","line2":"2 60346  53.1608  80.6456 0001345  90.5253 269.5902 15.30200335101366","mean_motion":15.30200335,"eccentricity":0.0001345,"inclination_deg":53.1608,"raan_deg":80.6456,"arg_perigee_deg":90.5253,"mean_anomaly_deg":269.5902,"bstar":-1.573e-5,"rev_number":10136,"period_min":94.105325104376,"perigee_km":474.29229345109,"apogee_km":476.13584488869,"semimajor_km":6853.3510691699,"source":"CELESTRAK","updated_at":"2026-05-25T13:38:19.236069Z"}}